Location: Ferchesar
(52.6477°N, 12.4298°E)
Time: 06:51:13
(UTC+02:00)

Transit 4A - Pass Details

Date: 06 March 2021
Orbit: 869 x 976 km, 66.8° (Epoch: 12 April)

Event Time Altitude Azimuth Distance (km) Brightness Sun altitude
Rises 16:16:40 0° 315° (NW) 3,614 11.2 13.8°
Reaches altitude 10° 16:19:31 10° 325° (NW) 2,650 10.4 13.4°
Maximum altitude 16:25:04 34° 29° (NNE) 1,468 8.7 12.6°
Drops below altitude 10° 16:30:28 10° 94° (E) 2,574 9.8 11.9°
Sets 16:33:11 0° 104° (ESE) 3,497 10.4 11.5°
